Regional Weather Roundup
Issued by NWS

Home | Current Version | Previous Version | Text Only | Print | Product List | Glossary On
Versions: 1 2 3 4 5 6 7 8 9 10 11 12 13 14 15 16 17 18 19 20 21 22 23 24 25 26 27 28 29 30 31 32 33 34 35 36 37 38 39 40 41 42 43 44 45 46 47 48 49 50
000
ASUS43 KFSD 272310
RWRSD

WEATHER ROUNDUP FOR SOUTH DAKOTA
NATIONAL WEATHER SERVICE SIOUX FALLS SD
600 PM CDT WED AUG 27 2014

NOTE: "FAIR" INDICATES FEW OR NO CLOUDS BELOW 12,000 FEET WITH NO
SIGNIFICANT WEATHER AND/OR OBSTRUCTIONS TO VISIBILITY.


SDZ001>005-009-010-012>017-280000-
NORTHWEST AND NORTH CENTRAL SOUTH DAKOTA

CITY           SKY/WX    TMP DP  RH WIND       PRES   REMARKS
BUFFALO          N/A     73  59  61 SE15      30.00F
FAITH            N/A     66  64  93 E7        30.06F
MOBRIDGE       PTSUNNY   72  64  76 E7        30.03F
$$

SDZ012>016-024>037-041>051-057-063-072>074-280000-
SOUTHWEST AND SOUTH CENTRAL SOUTH DAKOTA

CITY           SKY/WX    TMP DP  RH WIND       PRES   REMARKS
RAPID CTY ARPT CLOUDY    71  62  73 SE8       30.06F
PIERRE         CLOUDY    76  67  73 SE9       30.01F
CUSTER         RAIN      61  58  90 E7        30.18S
ELLSWORTH AFB  CLOUDY    73  62  68 S7        30.06S
PHILIP         CLOUDY    75  66  73 NE9       30.01F
PINE RIDGE     TSTM      65  64  97 NW8       30.07R FOG
WINNER         CLOUDY    72  66  81 SE14      30.04S
$$

SDZ004>011-016>023-039-040-280000-
NORTHEAST SOUTH DAKOTA

CITY           SKY/WX    TMP DP  RH WIND       PRES   REMARKS
ABERDEEN       CLOUDY    72  60  66 E10       30.07F
WATERTOWN      CLOUDY    73  59  61 SE8       30.09F
SISSETON         N/A     73  60  63 SE8       30.08F
$$

SDZ017-020-022-023-036>040-048>070-280000-
SOUTHEAST SOUTH DAKOTA

CITY           SKY/WX    TMP DP  RH WIND       PRES   REMARKS
SIOUX FALLS    CLOUDY    72  64  76 SE10      30.09F
HURON          CLOUDY    75  64  68 S14       30.05F
CHAMBERLAIN    CLOUDY    73  65  77 SE10      30.04F
MITCHELL       PTSUNNY   74  67  78 S12       30.07F
YANKTON        PTSUNNY   70  66  88 E5        30.07F
$$

ABBREVIATIONS USED IN REMARKS
   TC - TEMPERATURE IN CELSIUS
  WCI - WIND CHILL INDEX
   HX - HEAT INDEX
  VSB - VISIBILITY




USA.gov is the U.S. government's official web portal to all federal, state and local government web resources and services.